Date,TemperatureHighF,TemperatureAvgF,TemperatureLowF,DewpointHighF,DewpointAvgF,DewpointLowF,HumidityHigh,HumidityAvg,HumidityLow,PressureMaxIn,PressureMinIn,WindSpeedMaxMPH,WindSpeedAvgMPH,GustSpeedMaxMPH,PrecipitationSumIn
2013-3-1,67,57,46,50,37,29,80,50,26,30.23,30.08,18,4,18,0.00
2013-3-2,65,57,48,48,38,30,88,53,27,30.35,30.18,23,7,23,0.00
2013-3-3,69,58,42,56,47,34,81,67,49,30.23,29.95,25,7,25,0.00
2013-3-4,74,67,62,63,60,56,93,79,61,29.95,29.70,32,12,32,0.00
2013-3-5,70,64,57,63,48,31,94,60,29,30.24,29.74,35,10,35,0.00
2013-3-6,61,55,48,52,40,27,87,57,38,30.36,30.16,26,8,26,0.00
2013-3-7,73,65,56,63,59,51,93,81,67,30.16,30.04,20,7,20,0.00
2013-3-8,76,69,65,67,65,63,94,87,75,30.06,29.96,21,9,21,0.00
2013-3-9,74,69,67,68,66,64,95,90,79,29.95,29.61,31,12,31,0.00
2013-3-10,74,68,59,68,56,42,97,69,34,30.00,29.53,30,9,30,0.10
2013-3-11,72,60,53,50,38,28,70,46,21,30.11,29.95,24,7,24,0.00
2013-3-12,72,61,47,55,49,42,88,66,45,30.16,30.01,16,4,16,0.00
2013-3-13,68,63,54,60,56,52,97,79,63,30.34,30.16,18,6,18,0.00
2013-3-14,74,66,60,61,58,56,92,76,59,30.32,30.19,19,6,19,0.00
2013-3-15,74,67,62,63,61,58,92,80,64,30.21,29.99,24,8,25,0.00
2013-3-16,76,69,65,66,64,62,93,85,70,30.00,29.75,28,10,29,0.00
2013-3-17,77,71,66,69,67,64,98,88,76,29.79,29.60,25,10,25,0.00
2013-3-18,78,71,67,69,68,66,99,88,72,29.81,29.65,21,6,21,0.00
2013-3-19,78,70,65,69,67,62,99,91,72,29.91,29.75,17,6,17,0.00
2013-3-20,73,68,64,68,60,50,97,77,57,30.07,29.81,37,12,37,0.02
2013-3-21,73,68,64,67,63,58,93,83,71,29.98,29.61,21,8,23,0.00
2013-3-22,77,72,69,72,70,67,97,92,81,29.67,29.56,22,7,22,0.00
2013-3-23,78,72,67,73,69,66,100,93,75,29.63,29.51,18,4,18,0.01
2013-3-24,68,65,60,66,48,27,100,64,23,30.01,29.59,27,9,27,0.01
2013-3-25,60,55,50,39,34,26,65,45,29,30.27,30.06,15,9,25,0.00
2013-3-26,63,58,54,42,37,30,61,45,31,30.39,30.27,22,8,22,0.00
2013-3-27,68,62,57,60,50,42,87,66,55,30.28,30.13,20,8,20,0.00
2013-3-28,73,67,64,64,62,58,91,82,72,30.15,30.07,18,6,18,0.00
2013-3-29,77,70,65,66,64,62,93,84,70,30.12,30.00,21,8,21,0.00
2013-3-30,78,71,67,70,67,63,95,88,74,30.04,29.87,23,8,24,0.00
2013-3-31,77,72,68,72,69,67,98,90,79,29.92,29.73,26,8,26,0.00